Location: Unspecified
(48.7670°N, 0.0000°E)
Time: 12:37:04
(UTC+00:00)

Courier 1B - Pass Details

Date: 22 June 2019
Orbit: 963 x 1209 km, 28.3° (Epoch: 20 July)

Event Time Altitude Azimuth Distance (km) Brightness Sun altitude
Rises 22:14:17 0° 243° (WSW) 4,004 10.7 -13.9°
Reaches altitude 10° 22:20:03 10° 209° (SSW) 3,094 9.8 -14.3°
Maximum altitude 22:21:40 11° 196° (SSW) 3,049 9.6 -14.4°
Enters shadow 22:22:03 11° 193° (SSW) 3,054 9.6 -14.4°
Drops below altitude 10° 22:23:18 10° 184° (S) 3,115 - -14.5°
Sets 22:29:13 0° 150° (SSE) 4,100 - -14.9°
